STARLINK-30376, 57782

Orbit data source: Space-Track

STARLINK-30376, 57782 is a payload satellite owned by SpaceX/Seattle (US) in LEO that was launched on Mon, 04 Sep 2023 UTC via an FALCON 9 launch vehicle from the Air Force Eastern Test Range (AFETR). Payload-class satellites include a variety of spacecraft equipped with specific instruments for various scientific and technological missions. These include communications satellites like Starlink; space stations such as the ISS; scientific satellites like the Hubble; Earth observation satellites from companies like Planet Labs, Umbra, and HawkEye 360; GPS; miniature CubeSats for education and research; and military/defense satellites.

Loading next visibility...
Identifier
57782, 2023-134M
Orbit
LEO
Country
Flag of USUS
Related business
Manufacturer
SpaceX/Seattle
Mission
Operational Commercial Communications
Bus & Motor
STARLINK V2M, Unknown motor
Mass
730 kg wet, ~700 kg dry
Launch date (UTC)
2023-09-04 (2 years ago)
Launch vehicle
FALCON 9
Launch site
Air Force Eastern Test Range (AFETR)
Object type
Payload
Rocket body
Debris
Shape & HBR
Box + 2 Pan, 17.7 m
Radar Cross Section
33.884 m², Large (>1 m²)

Expand to show TLE details & history
Last TLE update: 11 hours ago

TLE from 11 hours ago
0 STARLINK-30376
1 57782U 23134M   25346.93792379  .00001321  00000-0  11290-3 0  9994
2 57782  43.0041 308.7129 0001352 271.2906  88.7781 15.02527293126421
Epoch: 2025-12-12T22:30Z
TLE epoch observation values (Epoch: 2025-12-12T22:30:36.615Z)
Latitude
-0.00005°
Longitude
-110.81209°
Altitude
558.865 km
Speed
7.584 km/s
True Right ascension
20h 34m 51s
True Declination
0° 00' 00"
Sunlit
Object was in daylight at epoch
Visualization orbit readout
Latitude
Unknown
Longitude
Unknown
Altitude
Unknown
Speed
Unknown
Apparent Right ascension
Unknown
Apparent Declination
Unknown
Sunlit
N/A
Visualization observer readout
Local Sidereal Time
07:32:39
Azimuth
Unknown
Elevation
Unknown
Doppler factor
Unknown
Orbital elements
Apogee altitude
561.968 km
Perigee altitude
560.091 km
Semi-major axis
6,939.167 km
Eccentricity
0.00014
Inclination
43.0041°
RAAN
308.7129°
Arg. of periapsis
271.2906°
True anomaly
88.79359°
Mean anomaly
88.7781°
Eccentric anomaly
88.78584°
Mean motion
3.75476 °/min
Orbital period
95.88 mins
BSTAR
0.0001129
Loading maneuver chart data...
Computing Atmospheric mass density...
Loading historical data...
Loading historical data...
Loading historical data...
Loading historical data...
Loading historical data...
Loading historical data...
Loading historical data...

Documentation

Showing up to 5 results
|